Weather History for Jaffrey, NH

Change the Weather History Date:

Wednesday, January 30, 2013

  Actual Average Record
Temperature  
Mean Temperature 42 °F -  
Max Temperature 54 °F 29 °F 54 °F (2013)
Min Temperature 30 °F 11 °F -6 °F (2003)
Degree Days  
Heating Degree Days 23    
Moisture  
Dew Point 44 °F    
Average Humidity 99    
Maximum Humidity 100    
Minimum Humidity 93    
Precipitation  
Precipitation 0.06 in - - ()
Sea Level Pressure  
Sea Level Pressure 29.72 in    
Wind  
Wind Speed 6 mph (SSW)    
Max Wind Speed 16 mph    
Max Gust Speed 30 mph    
Visibility 2 miles    
Events Fog , Rain    
Averages and records for this station are not official NWS values.
T = Trace of Precipitation, MM = Missing Value Source: NWS Daily Summary

Daily Weather History Graph

Daily Weather History Graph

Search for Another Location

Airport:

Trip Planner

Search our weather history database for the weather conditions in past years. The results will help you decide how hot, cold, wet, or windy it might be!

Date:

Astronomy

Jan. 30, 2013 Rise Set
Actual Time 7:04 AM EST 4:58 PM EST
Civil Twilight 6:34 AM EST 5:28 PM EST
Nautical Twilight 6:00 AM EST 6:02 PM EST
Astronomical Twilight 5:27 AM EST 6:36 PM EST
Moon 9:01 PM EST (1/30) 8:24 AM EST (1/30)
Length of Visible Light 10h 54m
Length of Day
9h 54m
Waning Gibbous, 88% of the Moon is Illuminated
Jan 30
Waning Gibbous
Feb 3
Last Quarter
Feb 10
New
Feb 17
First Quarter
Feb 25
Full

Hourly Weather History & Observations

Time (EST) Temp. Windchill Dew Point Humidity Pressure Visibility Wind Dir Wind Speed Gust Speed Precip Events Conditions
12:01 AM 30.2 °F 25.4 °F 30.2 °F 100% 30.08 in 5.0 mi South 4.6 mph - 0.00 in Rain Light Freezing Rain
12:24 AM 32.0 °F 28.7 °F 30.2 °F 93% 30.07 in 5.0 mi SSW 3.5 mph - 0.01 in   Overcast
12:52 AM 32.0 °F 26.4 °F 30.9 °F 96% 30.12 in 5.0 mi South 5.8 mph - 0.01 in   Overcast
1:52 AM 32.0 °F - 32.0 °F 100% 30.10 in 6.0 mi Calm Calm - 0.01 in   Overcast
2:52 AM 33.1 °F 30.0 °F 32.0 °F 96% 30.06 in 7.0 mi SSW 3.5 mph - 0.01 in   Overcast
3:21 AM 33.8 °F 30.8 °F 32.0 °F 93% 29.99 in 1.8 mi SSW 3.5 mph - N/A   Overcast
3:52 AM 33.1 °F - 33.1 °F 100% 30.04 in 1.8 mi Calm Calm - N/A   Overcast
4:14 AM 33.8 °F 30.8 °F 33.8 °F 100% 29.97 in 1.2 mi SW 3.5 mph - N/A   Overcast
4:50 AM 33.8 °F - 33.8 °F 100% 29.95 in 1.5 mi Calm Calm - N/A   Overcast
4:52 AM 34.0 °F - 33.1 °F 96% 30.00 in 1.5 mi Calm Calm - N/A   Overcast
5:02 AM 32.0 °F - 32.0 °F 100% 29.95 in 1.2 mi Calm Calm - N/A   Overcast
5:27 AM 32.0 °F - 32.0 °F 100% 29.94 in 0.8 mi Calm Calm - N/A   Overcast
5:52 AM 32.0 °F - 32.0 °F 100% 29.98 in 0.8 mi Calm Calm - N/A   Mist
6:52 AM 32.0 °F - 32.0 °F 100% 29.95 in 0.8 mi Calm Calm - N/A   Mist
7:52 AM 33.1 °F - 32.0 °F 96% 29.91 in 0.2 mi Calm Calm - N/A Fog Fog
8:52 AM 37.9 °F 35.5 °F 37.9 °F 100% 29.88 in 0.2 mi South 3.5 mph - N/A Fog Fog
9:52 AM 36.0 °F - 36.0 °F 100% 29.85 in 0.2 mi Calm Calm - N/A Fog Fog
10:52 AM 46.0 °F 42.5 °F 46.0 °F 100% 29.80 in 0.2 mi South 6.9 mph - N/A Fog Fog
11:52 AM 46.9 °F - 46.9 °F 100% 29.75 in 0.2 mi South 5.8 mph - N/A Fog Fog
12:17 PM 48.2 °F - 48.2 °F 100% 29.69 in 1.2 mi SSW 6.9 mph - N/A   Overcast
12:33 PM 48.2 °F - 48.2 °F 100% 29.68 in 1.0 mi South 8.1 mph - N/A   Overcast
12:41 PM 48.2 °F - 48.2 °F 100% 29.67 in 0.2 mi SSW 5.8 mph - N/A Fog Fog
12:52 PM 46.9 °F - 46.9 °F 100% 29.69 in 0.2 mi South 4.6 mph - N/A Fog Fog
1:04 PM 48.2 °F - 48.2 °F 100% 29.66 in 1.2 mi SW 5.8 mph - N/A   Overcast
1:11 PM 48.2 °F - 48.2 °F 100% 29.65 in 1.0 mi SSW 5.8 mph - N/A   Overcast
1:15 PM 48.2 °F - 48.2 °F 100% 29.65 in 1.5 mi SSW 11.5 mph 21.9 mph N/A   Overcast
1:26 PM 48.2 °F - 48.2 °F 100% 29.64 in 0.8 mi SSW 10.4 mph 27.6 mph N/A   Overcast
1:52 PM 48.0 °F - 48.0 °F 100% 29.66 in 0.2 mi SSW 15.0 mph 26.5 mph N/A Fog Fog
2:52 PM 48.9 °F - 48.9 °F 100% 29.63 in 0.2 mi SSW 13.8 mph 25.3 mph N/A Fog Fog
3:22 PM 51.8 °F - 51.8 °F 100% 29.58 in 1.2 mi SSW 16.1 mph 26.5 mph 0.00 in Rain Light Rain
3:27 PM 51.8 °F - 50.0 °F 94% 29.58 in 0.8 mi SSW 15.0 mph 26.5 mph 0.00 in   Overcast
3:38 PM 51.8 °F - 51.8 °F 100% 29.57 in 1.2 mi South 15.0 mph 29.9 mph 0.00 in   Overcast
3:52 PM 51.1 °F - 51.1 °F 100% 29.60 in 1.8 mi SSW 12.7 mph 23.0 mph 0.00 in   Overcast
3:59 PM 51.8 °F - 51.8 °F 100% 29.57 in 3.0 mi SSW 15.0 mph 21.9 mph N/A   Overcast
4:38 PM 51.8 °F - 51.8 °F 100% 29.58 in 2.0 mi SSW 11.5 mph 27.6 mph N/A   Overcast
4:48 PM 51.8 °F - 51.8 °F 100% 29.57 in 1.8 mi SSW 13.8 mph 21.9 mph N/A   Overcast
4:52 PM 53.1 °F - 52.0 °F 96% 29.60 in 1.8 mi SSW 13.8 mph 21.9 mph 0.00 in Rain Light Rain
4:59 PM 53.6 °F - 51.8 °F 94% 29.57 in 3.0 mi SSW 15.0 mph 24.2 mph 0.00 in Rain Light Rain
5:32 PM 53.6 °F - 53.6 °F 100% 29.55 in 5.0 mi SSW 13.8 mph 24.2 mph 0.00 in   Overcast
5:52 PM 54.0 °F - 53.1 °F 97% 29.58 in 6.0 mi SSW 11.5 mph 18.4 mph 0.00 in   Overcast
6:52 PM 54.0 °F - 53.1 °F 97% 29.57 in 4.0 mi SSW 9.2 mph 20.7 mph 0.00 in Rain Light Rain
7:52 PM 54.0 °F - 53.1 °F 97% 29.57 in 5.0 mi SSW 10.4 mph 20.7 mph 0.01 in   Overcast
8:52 PM 53.1 °F - 52.0 °F 96% 29.53 in 10.0 mi SSW 11.5 mph 26.5 mph N/A   Overcast
9:09 PM 53.6 °F - 51.8 °F 94% 29.50 in 9.0 mi SSW 15.0 mph 24.2 mph N/A   Overcast
9:52 PM 52.0 °F - 52.0 °F 100% 29.52 in 7.0 mi SSW 10.4 mph 19.6 mph N/A   Overcast
10:52 PM 52.0 °F - 51.1 °F 97% 29.49 in 10.0 mi South 10.4 mph - N/A   Overcast
11:37 PM 50.0 °F - 50.0 °F 100% 29.41 in 1.5 mi SSE 3.5 mph - 0.01 in Rain Light Rain
11:39 PM 50.0 °F - 50.0 °F 100% 29.41 in 1.0 mi Calm Calm - 0.01 in Rain Light Rain
11:47 PM 48.2 °F - 48.2 °F 100% 29.40 in 0.5 mi Calm Calm - 0.01 in Fog , Rain Light Rain
11:52 PM 48.9 °F - 48.9 °F 100% 29.42 in 0.2 mi Calm Calm - 0.02 in Fog , Rain Light Rain